Weather History for Coral Harbour, NU

Change the Weather History Date:

Saturday, October 20, 2012

  Actual Average Record
Temperature  
Mean Temperature 13 °F -  
Max Temperature 21 °F 14 °F 37 °F (2005)
Min Temperature 5 °F -1 °F -7 °F (1999)
Degree Days  
Heating Degree Days 52    
Moisture  
Dew Point 11 °F    
Average Humidity 87    
Maximum Humidity 93    
Minimum Humidity 78    
Precipitation  
Precipitation 0.00 in 0.03 in - ()
Sea Level Pressure  
Sea Level Pressure 30.26 in    
Wind  
Wind Speed 5 mph ()    
Max Wind Speed 12 mph    
Max Gust Speed -    
Visibility 15.0 miles    
Events      
Averages and records for this station are not official NWS values.
T = Trace of Precipitation, MM = Missing Value Source: Averaged Metar Reports

Daily Weather History Graph

Daily Weather History Graph

Search for Another Location

Airport:

Trip Planner

Search our weather history database for the weather conditions in past years. The results will help you decide how hot, cold, wet, or windy it might be!

Date:

Astronomy

Oct. 20, 2012 Rise Set
Actual Time 8:40 AM EDT 5:54 PM EDT
Civil Twilight 7:50 AM EDT 6:44 PM EDT
Nautical Twilight 6:55 AM EDT 7:39 PM EDT
Astronomical Twilight 5:59 AM EDT 8:34 PM EDT
Moon 3:28 PM EDT (10/20) 9:30 PM EDT (10/20)
Length of Visible Light 10h 53m
Length of Day
9h 13m
Waxing Crescent, 34% of the Moon is Illuminated
Oct 20
Waxing Crescent
Oct 21
First Quarter
Oct 29
Full
Nov 6
Last Quarter
Nov 13
New

Hourly Weather History & Observations

Time (EDT) Temp. Windchill Dew Point Humidity Pressure Visibility Wind Dir Wind Speed Gust Speed Precip Events Conditions
12:00 AM 14.0 °F 8.2 °F 12.2 °F 93% 30.18 in 15.0 mi NNE 3.5 mph - N/A   Overcast
1:00 AM 15.8 °F - 14.0 °F 93% 30.19 in 15.0 mi NNW 2.3 mph - N/A   Overcast
2:00 AM 16 °F - 12 °F 78% 30.20 in 15 mi North 4.6 mph - -   Overcast
2:00 AM 15.8 °F 8.6 °F 12.2 °F 86% 30.20 in 15.0 mi North 4.6 mph - N/A   Overcast
3:00 AM 14.0 °F 5.1 °F 12.2 °F 93% 30.20 in 15.0 mi NNW 5.8 mph - N/A   Overcast
4:00 AM 15.8 °F 8.6 °F 12.2 °F 86% 30.21 in 15.0 mi North 4.6 mph - N/A   Overcast
5:00 AM 8.6 °F -4.7 °F 5.0 °F 85% 30.21 in 15.0 mi NW 9.2 mph - N/A   Clear
6:00 AM 10.4 °F -3.3 °F 5.0 °F 79% 30.22 in 15.0 mi North 10.4 mph - N/A   Clear
7:00 AM 6.8 °F -3.5 °F 5.0 °F 92% 30.22 in 15.0 mi North 5.8 mph - N/A   Clear
8:00 AM 6 °F - 4 °F 84% 30.24 in 15 mi North 8.1 mph - -   Scattered Clouds
8:00 AM 6.8 °F -5.9 °F 3.2 °F 85% 30.24 in 15.0 mi North 8.1 mph - N/A   Partly Cloudy
9:00 AM 8.6 °F -4.7 °F 6.8 °F 92% 30.25 in 15.0 mi NNE 9.2 mph - N/A   Partly Cloudy
10:00 AM 12.2 °F 0.7 °F 8.6 °F 85% 30.26 in 15.0 mi NNE 8.1 mph - N/A   Partly Cloudy
11:00 AM 17.6 °F 7.3 °F 14.0 °F 86% 30.25 in 15.0 mi NE 8.1 mph - N/A   Partly Cloudy
12:00 PM 19.4 °F 11.5 °F 15.8 °F 86% 30.26 in 15.0 mi NE 5.8 mph - N/A   Partly Cloudy
1:00 PM 19.4 °F 11.5 °F 15.8 °F 86% 30.27 in 15.0 mi NE 5.8 mph - N/A   Partly Cloudy
2:00 PM 21 °F - 17 °F 78% 30.27 in 15 mi NE 4.6 mph - -   Scattered Clouds
2:00 PM 21.2 °F 14.9 °F 17.6 °F 86% 30.27 in 15.0 mi NE 4.6 mph - N/A   Partly Cloudy
3:00 PM 21.2 °F 14.9 °F 17.6 °F 86% 30.28 in 15.0 mi NE 4.6 mph - N/A   Partly Cloudy
4:00 PM 19.4 °F 14.3 °F 15.8 °F 86% 30.29 in 15.0 mi ENE 3.5 mph - N/A   Partly Cloudy
5:00 PM 17.6 °F 6.4 °F 14.0 °F 86% 30.31 in 15.0 mi ENE 9.2 mph - N/A   Partly Cloudy
6:00 PM 14.0 °F 2.0 °F 10.4 °F 86% 30.32 in 15.0 mi ENE 9.2 mph - N/A   Partly Cloudy
7:00 PM 14.0 °F 0.5 °F 10.4 °F 86% 30.32 in 15.0 mi ENE 11.5 mph - N/A   Partly Cloudy
8:00 PM 12 °F - 9 °F 84% 30.34 in 15 mi Calm Calm - -   Partly Cloudy
8:00 PM 12.2 °F - 8.6 °F 85% 30.34 in 15.0 mi Calm Calm - N/A   Scattered Clouds
8:45 PM - - - N/A% - 15.0 mi NNW 4.6 mph - N/A   Mostly Cloudy
9:00 PM 15.8 °F 6.1 °F 14.0 °F 93% 30.35 in 15.0 mi NNE 6.9 mph - N/A   Mostly Cloudy
10:00 PM 14.0 °F 2.9 °F 10.4 °F 86% 30.35 in 15.0 mi NNE 8.1 mph - N/A   Mostly Cloudy
11:00 PM 14.0 °F 5.1 °F 12.2 °F 93% 30.37 in 15.0 mi North 5.8 mph - N/A   Overcast